STARLINK-36328, 68096

Orbit data source: Space-Track

STARLINK-36328, 68096 is a payload satellite owned by SpaceX/Seattle (US) in LEO that was launched on Wed, 04 Mar 2026 UTC via an FALCON 9 launch vehicle from the Air Force Eastern Test Range (AFETR). Payload-class satellites include a variety of spacecraft equipped with specific instruments for various scientific and technological missions. These include communications satellites like Starlink; space stations such as the ISS; scientific satellites like the Hubble; Earth observation satellites from companies like Planet Labs, Umbra, and HawkEye 360; GPS; miniature CubeSats for education and research; and military/defense satellites.

Loading next visibility...
Identifier
68096, 2026-042AD
Orbit
LEO
Country
Flag of USUS
Related business
Manufacturer
SpaceX/Seattle
Mission
Operational Commercial Communications
Bus & Motor
STARLINK V2MO, Unknown motor
Mass
575 kg wet, ~530 kg dry
Launch date (UTC)
2026-03-04 (4 months ago)
Launch vehicle
FALCON 9
Launch site
Air Force Eastern Test Range (AFETR)
Object type
Payload
Rocket body
Debris
Shape & HBR
Box + 2 Pan, 17.7 m
Radar Cross Section
36.964 m², Large (>1 m²)

Expand to show TLE details & history
Last TLE update: 22 hours ago

TLE from 22 hours ago
0 STARLINK-36328
1 68096U 26042AD  26170.92260014  .00007793  00000-0  24150-3 0  9994
2 68096  53.1580  62.7113 0001048  22.3935 337.7113 15.34405078 17965
Epoch: 2026-06-19T22:08Z
TLE epoch observation values (Epoch: 2026-06-19T22:08:32.652Z)
Latitude
-0.00001°
Longitude
-177.56938°
Altitude
462.926 km
Speed
7.637 km/s
True Right ascension
04h 10m 50s
True Declination
0° 00' 00"
Sunlit
Object was in daylight at epoch
Visualization orbit readout
Latitude
Unknown
Longitude
Unknown
Altitude
Unknown
Speed
Unknown
Apparent Right ascension
Unknown
Apparent Declination
Unknown
Sunlit
N/A
Visualization observer readout
Local Sidereal Time
07:19:32
Azimuth
Unknown
Elevation
Unknown
Doppler factor
Unknown
Orbital elements
Apogee altitude
463.662 km
Perigee altitude
462.228 km
Semi-major axis
6,841.082 km
Eccentricity
0.0001
Inclination
53.158°
RAAN
62.7113°
Arg. of periapsis
22.3935°
True anomaly
337.70674°
Mean anomaly
337.7113°
Eccentric anomaly
337.70902°
Mean motion
3.8358 °/min
Orbital period
93.85 mins
BSTAR
0.0002415
Loading maneuver chart data...
Computing Atmospheric mass density...
Loading historical data...
Loading historical data...
Loading historical data...
Loading historical data...
Loading historical data...
Loading historical data...
Loading historical data...

Documentation

Showing up to 5 results
|